GW3595 Weather Reports


time (UTC)temp
F
wind
direction
speed
knots
gust
knots
rain 1hr
in
rain 24hr
in
rain mn
in
humidity
%
barometer
mb
20260506175705 62 212 2.6 6.1 0.00 0.00 0.00 70 1007.0
20260506175204 62 167 2.6 6.1 0.00 0.00 0.00 70 1006.9
20260506174704 63 217 2.6 6.1 0.00 0.00 0.00 70 1006.9
20260506174205 63 197 2.6 6.1 0.00 0.00 0.00 70 1006.9
20260506173704 63 213 2.6 6.1 0.00 0.00 0.00 70 1006.8
20260506173205 63 225 2.6 7.8 0.00 0.00 0.00 69 1006.8
20260506172704 64 235 2.6 7.8 0.00 0.00 0.00 69 1006.8
20260506172205 64 232 2.6 7.8 0.00 0.00 0.00 69 1006.9
20260506171705 64 201 2.6 6.1 0.00 0.00 0.00 68 1006.7
20260506171204 64 180 2.6 7.8 0.00 0.00 0.00 68 1006.7
20260506170704 64 192 3.5 7.8 0.00 0.00 0.00 68 1006.7
20260506170205 64 240 3.5 7.8 0.00 0.00 0.00 67 1006.7
20260506165705 64 189 3.5 7.8 0.00 0.00 0.00 67 1006.7
20260506165205 64 238 3.5 7.8 0.00 0.00 0.00 67 1006.8
20260506164205 64 242 3.5 7.0 0.00 0.00 0.00 66 1006.9
20260506163705 64 235 3.5 7.0 0.00 0.00 0.00 66 1006.9
20260506163204 65 0 3.5 10.4 0.00 0.00 0.00 66 1006.9
20260506162705 65 242 3.5 10.4 0.00 0.00 0.00 65 1006.9
20260506162216 65 143 4.3 11.3 0.00 0.00 0.00 65 1007.0
20260506161707 65 208 5.2 11.3 0.00 0.00 0.00 65 1007.1
20260506161207 65 240 5.2 11.3 0.00 0.00 0.00 65 1007.1
20260506160704 65 240 4.3 9.6 0.00 0.00 0.00 64 1007.0
20260506160228 66 183 4.3 9.6 0.00 0.00 0.00 63 1006.9
20260506155705 67 173 3.5 8.7 0.00 0.00 0.00 62 1007.0
20260506155205 68 0 2.6 8.7 0.00 0.00 0.00 61 1007.0
20260506154705 68 0 3.5 8.7 0.00 0.00 0.00 60 1007.1
20260506153705 67 218 3.5 7.0 0.00 0.00 0.00 62 1007.1
20260506153205 66 217 3.5 7.0 0.00 0.00 0.00 63 1007.1
20260506152704 66 198 3.5 7.0 0.00 0.00 0.00 63 1007.2
20260506151704 66 236 3.5 10.4 0.00 0.00 0.00 63 1007.2
20260506151205 66 188 3.5 13.0 0.00 0.00 0.00 63 1007.2
20260506150705 66 225 4.3 13.0 0.00 0.00 0.00 62 1007.3
20260506150205 66 183 4.3 13.0 0.00 0.00 0.00 62 1007.2
20260506145705 66 180 4.3 11.3 0.00 0.00 0.00 62 1007.3
20260506145204 67 153 4.3 11.3 0.00 0.00 0.00 61 1007.2
20260506144704 67 233 4.3 12.2 0.00 0.00 0.00 61 1007.1
20260506144204 67 209 6.1 12.2 0.00 0.00 0.00 60 1007.2
20260506143205 67 214 4.3 9.6 0.00 0.00 0.00 59 1007.1
20260506142205 67 178 4.3 11.3 0.00 0.00 0.00 59 1007.1
20260506140705 68 215 4.3 10.4 0.00 0.00 0.00 58 1007.1
20260506140204 68 211 4.3 11.3 0.00 0.00 0.00 57 1007.0
20260506135204 69 195 4.3 11.3 0.00 0.00 0.00 56 1007.0
20260506134704 69 196 4.3 8.7 0.00 0.00 0.00 55 1007.0
20260506134205 69 146 3.5 8.7 0.00 0.00 0.00 55 1007.1
20260506133704 70 225 3.5 9.6 0.00 0.00 0.00 55 1007.1
20260506132704 69 215 5.2 10.4 0.00 0.00 0.00 55 1007.2
20260506132205 69 171 4.3 10.4 0.00 0.00 0.00 54 1007.2
20260506131204 70 184 4.3 10.4 0.00 0.00 0.00 53 1007.3
20260506130704 71 200 4.3 10.4 0.00 0.00 0.00 52 1007.1
20260506125704 71 243 3.5 8.7 0.00 0.00 0.00 52 1007.2
20260506125205 70 201 3.5 8.7 0.00 0.00 0.00 52 1007.3
20260506124704 70 197 3.5 9.6 0.00 0.00 0.00 51 1007.3
20260506124205 70 247 4.3 9.6 0.00 0.00 0.00 50 1007.4
20260506123704 71 204 4.3 9.6 0.00 0.00 0.00 50 1007.4
20260506123205 71 254 4.3 9.6 0.00 0.00 0.00 50 1007.5
20260506122704 71 215 4.3 8.7 0.00 0.00 0.00 50 1007.4
20260506122205 71 180 3.5 8.7 0.00 0.00 0.00 50 1007.5
20260506121705 71 249 3.5 8.7 0.00 0.00 0.00 49 1007.4
20260506121205 70 191 3.5 8.7 0.00 0.00 0.00 52 1007.5
20260506120704 70 213 4.3 12.2 0.00 0.00 0.00 52 1007.5
20260506120222 70 271 4.3 12.2 0.00 0.00 0.00 52 1007.5
20260506115704 70 229 4.3 12.2 0.00 0.00 0.00 51 1007.6
20260506115204 70 275 3.5 9.6 0.00 0.00 0.00 49 1007.6
20260506114704 70 198 4.3 9.6 0.00 0.00 0.00 50 1007.7
20260506114227 71 253 4.3 9.6 0.00 0.00 0.00 48 1007.7
20260506113205 71 267 3.5 12.2 0.00 0.00 0.00 45 1007.9
20260506112704 72 282 4.3 12.2 0.00 0.00 0.00 45 1008.0
20260506111704 71 221 5.2 13.0 0.00 0.00 0.00 46 1008.1
20260506111205 70 263 5.2 9.6 0.00 0.00 0.00 47 1008.1
20260506110705 69 227 4.3 9.6 0.00 0.00 0.00 49 1008.0
20260506110205 69 242 4.3 9.6 0.00 0.00 0.00 50 1008.2
20260506105704 69 279 4.3 8.7 0.00 0.00 0.00 53 1008.2
20260506105205 68 242 3.5 10.4 0.00 0.00 0.00 54 1008.3
20260506104704 68 184 3.5 10.4 0.00 0.00 0.00 53 1008.3
20260506104205 68 242 5.2 10.4 0.00 0.00 0.00 52 1008.4
20260506103704 68 262 4.3 10.4 0.00 0.00 0.00 52 1008.4
20260506103205 68 236 3.5 9.6 0.00 0.00 0.00 51 1008.4
20260506102205 69 215 2.6 7.8 0.00 0.00 0.00 47 1008.4
20260506100704 69 248 3.5 7.8 0.00 0.00 0.00 48 1008.4
20260506100223 69 257 3.5 8.7 0.00 0.00 0.00 48 1008.4
20260506095705 69 235 4.3 8.7 0.00 0.00 0.00 47 1008.5
20260506095205 69 220 4.3 10.4 0.00 0.00 0.00 46 1008.4
20260506094204 72 226 4.3 10.4 0.00 0.00 0.00 44 1008.4
20260506093705 71 247 4.3 10.4 0.00 0.00 0.00 45 1008.4
20260506093204 71 192 4.3 9.6 0.00 0.00 0.00 45 1008.4
20260506092205 71 222 4.3 12.2 0.00 0.00 0.00 45 1008.3
20260506091704 70 241 4.3 12.2 0.00 0.00 0.00 45 1008.3
20260506091204 70 238 3.5 10.4 0.00 0.00 0.00 45 1008.3
20260506090704 70 152 4.3 10.4 0.00 0.00 0.00 47 1008.2
20260506090205 71 154 4.3 10.4 0.00 0.00 0.00 46 1008.3
20260506085704 70 144 4.3 7.8 0.00 0.00 0.00 48 1008.4
20260506084704 70 207 2.6 7.0 0.00 0.00 0.00 49 1008.6
20260506084205 70 244 2.6 11.3 0.00 0.00 0.00 49 1008.5
20260506083204 68 101 3.5 11.3 0.00 0.00 0.00 53 1008.6
20260506082705 68 219 3.5 8.7 0.00 0.00 0.00 52 1008.6
20260506082205 68 200 3.5 8.7 0.00 0.00 0.00 51 1008.5
20260506081704 68 247 3.5 7.8 0.00 0.00 0.00 52 1008.6
20260506081205 68 181 2.6 7.0 0.00 0.00 0.00 52 1008.6
20260506080704 68 215 1.7 5.2 0.00 0.00 0.00 53 1008.6
20260506080205 68 223 1.7 5.2 0.00 0.00 0.00 53 1008.7
20260506072205 64 157 0.9 2.6 0.00 0.00 0.00 57 1008.8
20260506071221 64 136 0.9 4.3 0.00 0.00 0.00 57 1008.8
20260506070704 62 130 0.9 6.1 0.00 0.00 0.00 60 1008.8
20260506070205 63 109 1.7 6.1 0.00 0.00 0.00 60 1008.9
20260506062204 57 156 1.7 4.3 0.00 0.00 0.00 69 1009.2
20260506061705 57 155 1.7 4.3 0.00 0.00 0.00 68 1009.3
20260506061204 57 175 2.6 5.2 0.00 0.00 0.00 69 1009.2
20260506060705 57 159 2.6 5.2 0.00 0.00 0.00 70 1009.1
20260506060205 56 161 2.6 5.2 0.00 0.00 0.00 70 1009.2
20260506051205 51 120 1.7 4.3 0.00 0.00 0.00 80 1009.5
20260506050705 51 0 1.7 3.5 0.00 0.00 0.00 81 1009.6
20260506050204 51 116 1.7 3.5 0.00 0.00 0.00 83 1009.8
20260506044204 49 0 2.6 4.3 0.00 0.00 0.00 86 1009.5
20260506043704 48 0 2.6 3.5 0.00 0.00 0.00 87 1009.4
20260506042704 47 0 0.9 2.6 0.00 0.00 0.00 88 1009.5
20260506042204 46 0 0.9 1.7 0.00 0.00 0.00 89 1009.5
20260506041704 46 0 0.0 2.6 0.00 0.00 0.00 88 1009.4
20260506041204 46 0 0.9 2.6 0.00 0.00 0.00 88 1009.3
20260506040705 46 0 0.9 2.6 0.00 0.00 0.00 87 1009.3
20260506040204 46 0 0.9 1.7 0.00 0.00 0.00 87 1009.3
20260506035705 46 0 0.9 2.6 0.00 0.00 0.00 87 1009.2
20260506035204 45 0 0.0 2.6 0.00 0.00 0.00 88 1009.2
20260506034705 46 0 0.9 2.6 0.00 0.00 0.00 87 1009.2
20260506033704 45 0 0.9 2.6 0.00 0.00 0.00 87 1009.2
20260506032205 46 0 0.0 1.7 0.00 0.00 0.00 87 1009.2
20260506031705 45 0 0.0 1.7 0.00 0.00 0.00 87 1009.2
20260506031204 46 0 0.0 1.7 0.00 0.00 0.00 87 1009.2
20260506030205 46 0 0.0 0.9 0.00 0.00 0.00 86 1009.1
20260506025704 46 0 0.0 1.7 0.00 0.00 0.00 87 1009.1
20260506025205 46 0 0.0 2.6 0.00 0.00 0.00 87 1009.1
20260506024205 46 0 0.9 2.6 0.00 0.00 0.00 86 1009.1
20260506023204 46 0 0.0 2.6 0.00 0.00 0.00 85 1009.0
20260506022705 47 0 0.9 3.5 0.00 0.00 0.00 85 1008.9
20260506022204 47 0 0.9 3.5 0.00 0.00 0.00 85 1008.9
20260506021704 47 0 1.7 3.5 0.00 0.00 0.00 85 1008.8
20260506021205 47 0 0.9 2.6 0.00 0.00 0.00 85 1008.8
20260506020704 47 0 0.0 1.7 0.00 0.00 0.00 85 1008.8
20260506020205 47 0 0.0 0.9 0.00 0.00 0.00 85 1008.8
20260506015704 47 0 0.0 1.7 0.00 0.00 0.00 85 1008.8
20260506015205 47 0 0.0 1.7 0.00 0.00 0.00 84 1008.8
20260506014704 47 0 0.9 1.7 0.00 0.00 0.00 84 1008.7
20260506014205 47 0 0.0 1.7 0.00 0.00 0.00 84 1008.6
20260506013705 47 0 0.0 0.9 0.00 0.00 0.00 84 1008.6
20260506013204 47 0 0.0 0.9 0.00 0.00 0.00 84 1008.6
20260506012705 48 0 0.0 0.9 0.00 0.00 0.00 84 1008.5
20260506011704 48 0 0.0 0.9 0.00 0.00 0.00 83 1008.4
20260506011205 48 0 0.0 2.6 0.00 0.00 0.00 83 1008.4
20260506010205 48 0 0.0 2.6 0.00 0.00 0.00 83 1008.3
20260506005704 48 0 0.0 1.7 0.00 0.00 0.00 82 1008.3
20260506005205 48 0 0.0 1.7 0.00 0.00 0.00 82 1008.3
20260506004704 49 0 0.0 1.7 0.00 0.00 0.00 81 1008.3
20260506004205 49 0 0.9 1.7 0.00 0.00 0.00 80 1008.3
20260506003705 49 0 0.9 4.3 0.00 0.00 0.00 79 1008.3
20260506003205 50 0 0.9 4.3 0.00 0.00 0.00 79 1008.3
20260506002723 50 0 0.9 3.5 0.00 0.00 0.00 80 1008.2
20260506002204 50 0 0.9 2.6 0.00 0.00 0.00 80 1008.2
20260506001704 50 0 0.9 2.6 0.00 0.00 0.00 80 1008.1
20260506000704 50 0 0.0 3.5 0.00 0.00 0.00 79 1008.2
20260506000205 50 0 0.9 4.3 0.00 0.00 0.00 78 1008.2
20260505235205 51 0 1.7 4.3 0.00 0.00 0.00 76 1008.2
20260505234705 52 0 0.9 4.3 0.00 0.00 0.00 76 1008.1
20260505233705 52 0 0.9 4.3 0.00 0.00 0.00 77 1008.2
20260505233204 51 0 0.0 1.7 0.00 0.00 0.00 78 1008.1
20260505232705 51 0 0.0 0.9 0.00 0.00 0.00 77 1008.1
20260505232205 52 0 0.0 3.5 0.00 0.00 0.00 76 1008.3
20260505231704 52 0 0.0 4.3 0.00 0.00 0.00 76 1008.2
20260505231205 52 0 0.9 4.3 0.00 0.00 0.00 75 1008.2
20260505230704 53 0 0.9 4.3 0.00 0.00 0.00 75 1008.2
20260505230205 53 0 1.7 4.3 0.00 0.00 0.00 76 1008.2
20260505225704 52 0 0.9 4.3 0.00 0.00 0.00 77 1008.1
20260505225205 52 0 0.9 4.3 0.00 0.00 0.00 76 1008.1
20260505224705 52 0 0.9 3.5 0.00 0.00 0.00 76 1008.1
20260505223704 54 0 0.9 3.5 0.00 0.00 0.00 74 1008.1
20260505223204 54 0 0.9 3.5 0.00 0.00 0.00 74 1008.1
20260505222704 54 0 0.9 1.7 0.00 0.00 0.00 73 1008.1
20260505221704 54 0 0.9 1.7 0.00 0.00 0.00 74 1008.1
20260505221205 54 0 0.9 1.7 0.00 0.00 0.00 74 1008.0
20260505220704 54 0 0.9 1.7 0.00 0.00 0.00 73 1008.0
20260505220205 54 0 0.9 1.7 0.00 0.00 0.00 73 1007.9
20260505215704 55 0 0.9 1.7 0.00 0.00 0.00 72 1007.9
20260505215205 55 0 0.9 1.7 0.00 0.00 0.00 71 1008.0
20260505214205 55 0 0.0 1.7 0.00 0.00 0.00 71 1007.9
20260505213704 56 0 0.0 3.5 0.00 0.00 0.00 70 1007.7
20260505213205 56 0 0.9 3.5 0.00 0.00 0.00 68 1007.7
20260505211705 58 0 1.7 2.6 0.00 0.00 0.00 66 1007.6
20260505211204 58 0 0.9 3.5 0.00 0.00 0.00 66 1007.6
20260505210705 58 0 0.9 3.5 0.00 0.00 0.00 66 1007.7
20260505210204 58 0 1.7 2.6 0.00 0.00 0.00 66 1007.7
20260505205704 57 0 1.7 2.6 0.00 0.00 0.00 68 1007.7
20260505204704 57 0 0.9 1.7 0.00 0.00 0.00 67 1007.7
20260505204205 58 0 0.0 1.7 0.00 0.00 0.00 67 1007.7
20260505203704 58 0 0.0 1.7 0.00 0.00 0.00 67 1007.7
20260505203205 58 0 0.9 2.6 0.00 0.00 0.00 66 1007.7
20260505202205 59 0 0.9 1.7 0.00 0.00 0.00 64 1007.9
20260505201704 59 0 0.0 2.6 0.00 0.00 0.00 64 1007.7
20260505201204 60 0 0.9 4.3 0.00 0.00 0.00 62 1007.9
20260505200704 60 0 0.9 4.3 0.00 0.00 0.00 61 1007.9
20260505200205 61 0 1.7 4.3 0.00 0.00 0.00 60 1007.9
20260505195704 62 0 2.6 5.2 0.00 0.00 0.00 59 1007.9
20260505195205 62 0 2.6 7.0 0.00 0.00 0.00 58 1008.0
20260505194704 62 0 2.6 7.0 0.00 0.00 0.00 59 1007.9
20260505194205 62 0 2.6 10.4 0.00 0.00 0.00 58 1007.9
20260505193704 62 0 3.5 10.4 0.00 0.00 0.00 58 1008.0
20260505193205 62 0 3.5 10.4 0.00 0.00 0.00 58 1007.9
20260505192704 62 0 3.5 10.4 0.00 0.00 0.00 58 1007.9
20260505192205 62 0 4.3 10.4 0.00 0.00 0.00 57 1007.7
20260505191705 62 0 4.3 10.4 0.00 0.00 0.00 58 1008.0
20260505191205 62 0 3.5 7.0 0.00 0.00 0.00 58 1007.7
20260505190704 62 0 3.5 5.2 0.00 0.00 0.00 58 1007.9
20260505190204 62 0 2.6 5.2 0.00 0.00 0.00 58 1007.7
20260505185704 62 0 1.7 7.0 0.00 0.00 0.00 58 1007.7
20260505185204 62 0 2.6 7.0 0.00 0.00 0.00 58 1007.7
20260505184704 63 0 2.6 7.8 0.00 0.00 0.00 57 1007.7
20260505184205 63 0 3.5 7.8 0.00 0.00 0.00 56 1007.6
20260505183704 63 0 3.5 7.0 0.00 0.00 0.00 56 1007.6
20260505183205 63 0 2.6 7.0 0.00 0.00 0.00 56 1007.5
20260505181704 64 0 2.6 7.0 0.00 0.00 0.00 56 1007.2
20260505181205 64 0 2.6 8.7 0.00 0.00 0.00 56 1007.2
20260505180705 64 0 3.5 9.6 0.00 0.00 0.00 55 1007.3